Tracking 27420 objects as of 10-Jun-2023
HD Live streaming from Space Station
objects crossing your sky now

FREGAT DEB

Track FREGAT DEB now!
10-day predictions


NORAD ID: 46018
Int'l Code: 2011-037HV
Perigee: 471.4 km
Apogee: 2,626.6 km
Inclination: 51.4 °
Period: 116.9 minutes
Semi major axis: 7919 km
RCS: Unknown
Launch date: July 18, 2011
Source: Commonwealth of Independent States (former USSR) (CIS)
Launch site: TYURATAM MISSILE AND SPACE COMPLEX (TTMTR)

Note: This is SATELLITE DEBRIS
Your satellite tracking list
Your tracking list is empty




NASA's NSSDC Master Catalog

Two Line Element Set (TLE):
1 46018U 11037HV  23160.24229388  .00241287  00000-0  56744-1 0  9992
2 46018  51.4185 342.6394 1360599  92.8158 282.8730 12.31733251120777
Source of the keplerian elements: AFSPC